{"data":{"norad_id":65779,"epoch":"2026-05-25T00:19:32.900736Z","epoch_age_seconds":84035,"freshness":"FRESH","line1":"1 65779U 25217T   26145.01357524 -.00000869  00000+0 -84939-4 0  9997","line2":"2 65779  51.9034  45.6360 0000783 104.3793 255.7257 14.79930676 36450","mean_motion":14.79930676,"eccentricity":7.83e-5,"inclination_deg":51.9034,"raan_deg":45.636,"arg_perigee_deg":104.3793,"mean_anomaly_deg":255.7257,"bstar":-8.4939e-5,"rev_number":3645,"period_min":97.30185496878,"perigee_km":628.99426413541,"apogee_km":630.091666818,"semimajor_km":7007.6799654767,"source":"CELESTRAK","updated_at":"2026-05-25T13:38:05.688703Z"}}